Retour au catalogue

TITAN 34B R/B

ActifHEO
NORAD 7688·ROCKET BODY·🇺🇸 United States

Lancé Mar 10, 1975 depuis Vandenberg Space Force Base

Loading…

Prochains Passages (prochaines 24 heures)

TLE

FraisSource: Space-Track

Époque: Sep 14, 2026, 14:50 UTC

1 07688U 75017B   26257.61808561  .00014510  00000-0  71335-3 0  9999
2 07688  63.2713 107.2368 5291818 273.6596  30.2236  5.21822829120886

Suivez TITAN 34B R/B en temps réel avec AllMySat

Download on the App Store